Lid_Strength_Index
11 13 15 14 13 12 13 15 14 13 11 12 12 12 10 8 9 10 10 10 9 8 6 6 5 4 4 5 6 4 3 2 3 3 3 3 3 3 3 2 1 1 1 1
13 15 12 11 11 12 12 14 13 12 11 12 12 12 10 9 9 9 9 7 7 7 5 6 5 5 5 4 5 5 2 2 2 3 3 3 3 3 3 2 1 1 1 1
14 12 10 11 12 12 13 13 14 13 11 11 12 14 12 9 9 7 6 6 6 6 5 5 5 7 6 5 4 5 3 2 2 2 2 2 3 3 3 3 4 2 1 1
13 10 11 12 12 12 15 11 11 12 13 16 12 18 14 11 9 8 7 7 6 6 5 4 5 5 6 5 4 4 3 2 2 1 2 3 3 4 3 3 3 3 1 1
12 12 12 13 12 10 13 10 11 12 14 16 15 17 15 10 11 10 8 7 6 5 5 5 5 5 4 5 4 3 2 2 2 2 3 4 3 3 3 2 2 2 2 1
12 10 11 11 9 10 9 12 13 15 16 19 16 15 16 13 12 10 8 7 6 6 5 5 5 5 4 4 4 3 3 4 4 4 3 3 3 3 3 3 3 3 2 1
12 12 10 9 12 10 11 14 19 20 20 20 14 15 14 11 10 9 9 8 6 6 6 5 6 6 5 5 4 3 4 4 3 2 2 2 3 3 3 3 3 3 2 2
17 17 11 10 12 13 14 14 18 21 21 18 13 17 14 9 8 8 7 7 6 5 5 6 6 6 6 5 4 4 4 4 4 3 3 2 2 3 3 3 2 2 2 2
16 15 10 9 9 10 13 15 13 16 16 19 16 13 10 9 9 8 8 7 7 6 5 5 4 6 6 6 5 5 5 4 4 4 3 3 2 2 3 3 2 2 2 1
13 17 11 10 9 10 11 10 16 17 21 22 18 16 15 13 11 9 8 8 7 6 5 5 5 4 6 5 5 5 5 5 5 4 4 3 3 2 3 3 3 2 2 2
13 15 13 11 12 12 13 14 14 14 16 21 21 17 11 11 10 10 8 7 7 6 6 5 5 4 5 4 4 5 5 4 4 4 4 4 3 3 3 3 2 1 2 3
11 14 15 13 9 9 11 12 13 17 18 16 17 17 9 9 9 8 7 7 6 6 5 5 4 5 4 5 5 5 5 4 3 3 3 3 3 3 4 2 2 2 4 4
10 15 17 15 13 11 12 11 11 13 15 17 19 16 9 9 8 8 8 7 6 6 5 5 5 6 7 6 5 5 5 5 4 2 2 3 3 3 3 2 2 3 3 4
8 14 15 17 14 13 14 12 11 13 17 16 15 14 10 10 10 9 8 7 7 7 6 6 6 7 6 5 5 5 4 4 3 2 3 2 3 3 3 4 3 4 3 4
11 15 13 12 11 11 12 12 12 14 13 16 14 14 11 9 9 8 7 7 7 7 7 7 7 7 7 6 6 5 4 4 3 2 3 2 2 2 2 3 3 4 4 6
11 15 13 14 11 11 13 12 11 12 12 12 12 13 9 8 8 8 8 8 8 7 7 7 7 7 7 6 5 5 5 4 3 3 3 2 3 3 3 3 4 4 5 6
14 16 16 17 13 13 16 13 12 12 11 11 15 11 10 10 9 9 8 8 8 8 8 8 7 7 7 6 6 6 6 5 4 3 3 2 4 5 5 5 5 7 7 7
16 15 13 16 15 21 12 9 10 11 11 10 10 10 9 9 8 8 7 7 8 8 8 8 8 8 7 6 6 6 6 6 5 3 3 4 4 6 6 6 6 7 7 8
11 12 15 17 17 14 12 11 11 12 13 9 10 10 8 7 7 8 7 7 8 8 7 8 8 8 8 7 6 6 7 7 6 4 3 4 6 6 7 8 8 8 8 9
9 10 14 15 18 20 13 9 7 8 15 9 9 9 9 8 12 10 8 7 7 7 7 7 7 6 7 7 7 7 7 7 6 3 4 4 5 6 8 9 9 9 9 11
14 14 15 15 17 15 10 8 7 17 14 8 8 8 8 10 10 9 8 8 8 8 8 7 7 8 7 7 7 7 8 8 4 3 4 5 6 7 8 9 9 10 10 11
15 16 17 15 16 18 8 9 13 10 7 7 7 8 9 10 9 9 9 9 9 9 8 8 8 8 7 7 7 7 8 6 3 4 5 7 8 7 8 10 9 10 10 12
15 12 14 13 15 10 8 8 6 6 7 8 9 9 10 10 10 10 10 10 9 9 8 8 8 8 7 7 7 7 7 4 4 6 7 9 8 8 9 10 10 10 10 11
11 10 12 12 11 10 8 6 6 6 8 8 9 9 9 10 10 10 10 9 9 9 9 8 8 8 8 7 7 7 5 4 6 8 10 9 10 10 9 9 9 10 10 11
10 11 13 12 10 9 7 6 7 8 8 9 9 9 9 9 10 10 10 10 10 9 9 8 8 8 8 7 7 5 5 6 8 10 10 10 10 10 10 10 11 12 11 11
12 13 12 12 9 8 8 8 8 10 9 9 10 10 9 9 10 10 11 10 9 9 8 7 7 7 8 7 5 5 6 7 9 10 10 10 10 10 11 12 14 13 12 10